Location: Yecla
(38.6122°N, 1.1101°W)
Time: 15:48:45
(UTC+02:00)

ISS - Pass Details

Date: 23 May 2019
Orbit: 407 x 418 km, 51.6° (Epoch: 20 June)

Event Time Altitude Azimuth Distance (km) Brightness Sun altitude
Rises 01:48:51 0° 318° (NW) 2,362 0.7 -30.8°
Reaches altitude 10° 01:51:47 10° 346° (NNW) 1,500 -0.1 -30.9°
Enters shadow 01:52:52 13° 4° (N) 1,334 -0.4 -30.9°
